Weather in Kozlovka

Russia / Republic of Mordovia     54°42′14″N   45°54′44″E
temp.,
°C
wind,
m/s
gust,
m/s
humid.,
%
clouds,
%
prec.,
mm/h
press.,
hPa
HPBL,
m
15 may, sat
sat1500:00+18se3481100 0.0 101656
03:00+17sse387678 0.0 1015144
06:00+19s6156430 0.0 1015332
09:00+23s7155254 0.0 1016680
12:00+26ssw71445100 0.0 10161244
15:00+26s7134722 0.0 10161321
18:00+24s613605 0.0 1015460
21:00+19s4117029 0.0 1015177
16 may, sun
sun1600:00+18s412685 0.0 1014181
03:00+16s227270 0.0 101512
06:00+17ssw237269 0.0 1015114
09:00+22ssw3462100 0.0 1016444
12:00+25sw4657100 0.0 10161089
15:00+26ssw595116 0.0 10151572
18:00+23ssw4105868 0.0 1015308
21:00+18sw226953 0.0 101611
17 may, mon
mon1700:00+17ssw2273100 0.0 101611
03:00+16s118062 0.0 101711
06:00+18e117290 0.0 101748
09:00+23e225822 0.0 1017388
12:00+27s344522 0.0 1018950
15:00+28ssw473687 0.0 10171988
18:00+25s3453100 0.0 101770
21:00+20sse225391 0.0 101711
18 may, tue
tue1800:00+18ese2249100 0.0 101712
03:00+17se2254100 0.0 101717
06:00+19ese226067 0.0 101750
09:00+24se4743100 0.0 1016343
12:00+27se6741100 0.0 1016766
15:00+28se574116 0.0 10151508
18:00+24se511535 0.0 1015297
21:00+20ese476318 0.0 101584
19 may, wed
wed1900:00+18ese4135852 0.0 1015197
03:00+17ese51450100 0.0 1015244
06:00+18se5145819 0.0 1014270
09:00+24se7145177 0.0 1014555
12:00+27se811455 0.0 10131256
15:00+28se8124451 0.0 10121340
18:00+24sw136698 0.0 1011188
21:00+20e347461 0.0 101158